Flag for India Weather past 2 weeks in Navi Mumbai, Maharashtra, India

Now
81 °F

Passing clouds.


Feels Like: 85 °F
Forecast: 74 / 97 °F
Wind: 6 mph from Southwest

Location: Bombay / Santacruz


UV Index: 10 (Very high)

Visibility: 3 mi


Pressure: 29.80 "Hg

Humidity: 79%

Dew point: 73 °F

Location of Navi MumbaiLocation

Historic Weather in Navi Mumbai

°F

Navi Mumbai temperature yesterday

Maximum temperature yesterday: 86 °F (at 10:40 AM)
Minimum temperature yesterday: 77 °F (at 6:40 AM)
Average temperature yesterday: 82 °F

Past Weeks' High & Low Weather Summary

 TemperatureHumidityPressure
High95 °F (Apr 4, 12:40 PM)89% (Apr 3, 4:40 AM)29.98 "Hg (Apr 3, 4:40 AM)
Low75 °F (Apr 13, 6:40 AM)32% (Apr 4, 10:40 AM)29.71 "Hg (Apr 4, 4:40 PM)
Average83 °F68%29.84 "Hg
* Reported Apr 2 12:40 AM — Apr 17 12:40 AM, Navi Mumbai, Weather by CustomWeather, © 2014

Note: Actual official high and low records may vary slightly from our data, if they occured in-between our weather recording intervals... More about our weather records

Advertising

Historic Weather Conditions — Data for Previous 24 hours

 ConditionsComfort  
Time TempWeatherWind HumidityBarometerVisibility
12:40 AM
Apr 17
81 °FPassing clouds.8 mph79%29.80 "Hg3 mi
11:40 PM
Apr 16
81 °FPassing clouds.8 mph79%29.83 "Hg3 mi
10:40 PM82 °FPassing clouds.6 mph79%29.83 "Hg3 mi
9:40 PM82 °FPassing clouds.8 mph74%29.83 "Hg3 mi
8:40 PM82 °FPassing clouds.7 mph74%29.80 "Hg3 mi
7:40 PM81 °FPassing clouds.10 mph79%29.80 "Hg3 mi
5:40 PM84 °FPassing clouds.13 mph66%29.74 "Hg4 mi
4:40 PM86 °FPassing clouds.12 mph62%29.77 "Hg4 mi
3:40 PM86 °FHaze.12 mph62%29.77 "Hg3 mi
2:40 PM86 °FHaze.14 mph66%29.80 "Hg3 mi
1:40 PM84 °FHaze.8 mph66%29.83 "Hg3 mi
12:40 PM84 °FHaze.15 mph70%29.83 "Hg2 mi
11:40 AM84 °FHaze.10 mph70%29.86 "Hg2 mi
10:40 AM86 °FHaze.7 mph62%29.86 "Hg2 mi
9:40 AM84 °FClear.3 mph66%29.89 "Hg2 mi
7:40 AM79 °FHaze.3 mph79%29.86 "Hg2 mi
6:40 AM77 °FHaze.3 mph83%29.86 "Hg2 mi
5:40 AM79 °FHaze.3 mph79%29.83 "Hg2 mi
3:40 AM79 °FPassing clouds.3 mph79%29.83 "Hg2 mi
Weather by CustomWeather, © 2014

See weather overview